TFFRTNCM

Guest
Details From TFFR - Pointe a Pitre Le Raizet
To TNCM - St Maarten - Princess Juliana Intl
Flight Number -
Tags decoded
Created
Modified
Stats Distance 143 nm / 264 km
Max Altitude 0 ft / 0 m
Waypoints 5
Social Downloads 33
Likes 0
Share VATSIM

Download

Looking for another format? Having issues loading an existing format? Contact us
Advertisement - Login to hide

Notes

Requested: TFFR BIMBO A517 TIKAL TNCM

Route

TFFR BIMBO A517 TIKAL TNCM

ID Type Via Altitude (ft/m) Position (lat/lon) Dist (leg/tot) Name
O TFFR APT - 0 / 0 16.26531 / -61.53181 - / 0 nm Pointe a Pitre Le Raizet
BIMBO FIX - 0 / 0 16.62667 / -61.96028 32 / 32 nm
SKB NDB A517 (AWY-LO) 0 / 0 17.29597 / -62.74328 60 / 93 nm BRADSHAW NDB
TIKAL FIX A517 (AWY-LO) 0 / 0 17.47381 / -62.81800 11 / 104 nm
O TNCM APT - 0 / 0 18.04089 / -63.10897 37 / 142 nm St Maarten - Princess Juliana Intl

Altitude Profile

Advertisement - Login to hide

TFFR

Details ICAO TFFR (PTP)
Name Pointe-A-Pitre Intl
Region France (Guadeloupe, Martinique, Saint Barthélemy, Saint Martin)
Timezone America/Guadeloupe (UTC-4.0)
Stats Elevation 35 ft / 11 m (AMSL)
Location 16.265500° -61.533000°
Runways 1
Magnetic Variation 14.906° W

METAR

TFFR 171800Z AUTO VRB05KT 9999 FEW027 30/24 Q1007 TEMPO 3000 SHRA BKN018TCU

Decode

TAF

TAF TFFR 171600Z 1718/1818 VRB03KT 9999 FEW025 SCT045 PROB30 TEMPO 1718/1721 3000 SHRA BKN018TCU PROB40 TEMPO 1815/1818 2000 SHRA BKN020TCU PROB30 TEMPO 1816/1818 SCT018CB

Decode

Departure Runways

ID Width Length Bearing (true/mag) Surface Threshold Overrun Markings Lighting
12 148 ft / 45 m 10,673 ft / 3,253 m 100.87° / 115.77° ASPHALT 1,309 ft / 399 m 98 ft / 30 m PREC-APP CENTERLINE EDGE THRESHOLD TDZ REIL-OMNI
30 148 ft / 45 m 10,673 ft / 3,253 m 280.87° / 295.78° ASPHALT 978 ft / 298 m 853 ft / 260 m APP CENTERLINE EDGE THRESHOLD TDZ REIL-OMNI

TNCM

Details ICAO TNCM (SXM)
Name Princess Juliana Intl
Region Caribbean Netherlands, Aruba, Curaçao, Sint Maarten
Timezone Unknown
Stats Elevation 14 ft / 4 m (AMSL)
Location 18.040900° -63.108900°
Runways 1
Magnetic Variation 14.378° W

METAR

TNCM 171700Z 12008KT 9999 SCT018 31/24 Q1009 NOSIG

Decode

TAF

TAF TNCM 171720Z 1718/1818 10010KT P6SM SCT020 FM172200 VRB05KT P6SM SCT018

Decode

Destination Runways

ID Width Length Bearing (true/mag) Surface Threshold Overrun Markings Lighting
10 148 ft / 45 m 7,553 ft / 2,302 m 81.44° / 95.82° ASPHALT 331 ft / 101 m 164 ft / 50 m PREC-APP EDGE THRESHOLD REIL-OMNI
28 148 ft / 45 m 7,553 ft / 2,302 m 261.45° / 275.82° ASPHALT 0 ft / 0 m 200 ft / 61 m APP EDGE THRESHOLD

Popular Alternatives